Regional Weather Roundup
Issued by NWS

Home | Current Version | Previous Version | Graphics & Text | Print | Product List | Glossary On
Versions: 1 2 3 4 5 6 7 8 9 10 11 12 13 14 15 16 17 18 19 20 21 22 23 24 25 26 27 28 29 30 31 32 33 34 35 36 37 38 39 40 41 42 43 44 45 46 47 48 49 50
000
ASUS43 KDMX 010007
RWRIA

WEATHER ROUNDUP FOR IOWA
NATIONAL WEATHER SERVICE DES MOINES IA
600 PM CST SAT FEB 28 2015

NOTE: "FAIR" INDICATES FEW OR NO CLOUDS BELOW 12,000 FEET WITH NO
SIGNIFICANT WEATHER AND/OR OBSTRUCTIONS TO VISIBILITY.

* - THESE STATIONS ARE NOT NWS STATIONS...THUS NOT UNDER NWS
QUALITY CONTROL.  THEY ALSO DO NOT REPORT WEATHER SUCH
AS PRECIPITATION OR FOG.

IAZ001>003-012>014-020>022-031>034-043>046-010100-
   NORTHWEST IOWA

CITY           SKY/WX    TMP DP  RH WIND       PRES   REMARKS
CARROLL *      PTCLDY    19  18  93 S8        30.34S WCI   9
CHEROKEE *     CLOUDY    20  14  76 S13       30.31S WCI   8
DENISON *      CLOUDY    21  18  86 S13       30.30F WCI   9
LE MARS *      CLOUDY    23  16  74 S14       30.28S WCI  11
ORANGE CITY *  CLEAR     23  14  68 S10       30.26S WCI  12
SHELDON *      CLOUDY    19  14  79 S14       30.26R WCI   6
SIOUX CITY     PTCLDY    24  14  65 S17       30.30S WCI  11
6HR MIN TEMP:  23; 6HR MAX TEMP:  29;

SPENCER        CLOUDY    20  12  71 S14       30.30S WCI   7
6HR MIN TEMP:  17; 6HR MAX TEMP:  22;

STORM LAKE *   CLOUDY    19  14  79 S13       30.30S WCI   7
$$

IAZ055>058-069>071-079>083-090>094-010100-
   SOUTHWEST IOWA

CITY           SKY/WX    TMP DP  RH WIND       PRES   REMARKS
ATLANTIC *     MOCLDY    19  16  86 S6        30.34F WCI  11
AUDUBON *      FLURRIES  19  16  86 S3        30.34S
CLARINDA *     CLOUDY    21  18  86 S5        30.39R WCI  15
COUNCIL BLFS * CLOUDY    21  19  93 S10       30.32S WCI  10
CRESTON *      CLOUDY    21  18  86 S9        30.35S WCI  11
HARLAN  *      MOCLDY    21  19  93 S9        30.37S WCI  11
LAMONI         MOCLDY    21  16  81 SE7       30.36F WCI  12
6HR MIN TEMP:  21; 6HR MAX TEMP:  22; 6HR PCP:  0.03;

RED OAK *      CLOUDY    23  19  86 S6        30.36S WCI  16
SHENANDOAH *   CLOUDY    23  19  86 S10       30.37S WCI  12
$$

IAZ047>049-059>061-072>074-084-010100-
   CENTRAL IOWA

CITY           SKY/WX    TMP DP  RH WIND       PRES   REMARKS
AMES           LGT SNOW  18  12  77 SE9       30.39F WCI   7
6HR MIN TEMP:  15; 6HR MAX TEMP:  20; 6HR PCP: TRACE;

ANKENY *       CLOUDY    19  16  86 SE3       30.40S
CHARITON *     MIX PCPN  21  18  86 SE3       30.39S
DES MOINES     LGT SNOW  22  17  81 SE6       30.39F WCI  14
6HR MIN TEMP:  20; 6HR MAX TEMP:  24; 6HR PCP:  0.02;

GRINNELL*      LGT SNOW  17  15  90 E10       30.41F WCI   5
KNOXVILLE *    CLOUDY    21  16  79 SE9       30.39F HAZE    WCI  11
MARSHALLTOWN   LGT SNOW  16  11  80 SE10      30.40F WCI   4
6HR MIN TEMP:  11; 6HR MAX TEMP:  18; 6HR PCP: TRACE;

PELLA *        LGT SNOW  20  18  93 SE8       30.43S WCI  10
PERRY *          N/A     21  18  86 SE9       30.36F FOG     WCI  11
$$

IAZ004>006-015-016-023>025-035-036-010100-
   NORTH CENTRAL IOWA

CITY           SKY/WX    TMP DP  RH WIND       PRES   REMARKS
ALGONA *       CLOUDY    19  12  73 S14       30.34S WCI   6
CLARION *      MOCLDY    14   9  79 SE14      30.37R WCI  -1
ESTHERVILLE    CLOUDY    19  12  74 S10       30.30F WCI   7
6HR MIN TEMP:  14; 6HR MAX TEMP:  20;

FORT DODGE *   PTCLDY    19  10  68 S10       30.36S WCI   8
MASON CITY     CLOUDY    12   5  73 S10       30.39S WCI  -1
6HR MIN TEMP:   6; 6HR MAX TEMP:  13;

FOREST CITY *  CLOUDY    14   5  67 SE14      30.36S WCI  -1
IOWA FALLS *     N/A     14  10  85 SE8       30.39S HAZE    WCI   3
$$

IAZ007>011-017>019-026>030-037>042-050>054-066-010100-
   NORTHEAST IOWA

CITY           SKY/WX    TMP DP  RH WIND       PRES   REMARKS
CEDAR RAPIDS   LGT SNOW  15  10  80 SE9       30.45S WCI   3
6HR MIN TEMP:  13; 6HR MAX TEMP:  17; 6HR PCP: TRACE;

CHARLES CITY * CLOUDY    12   5  73 SE13      30.41S WCI  -3
CLINTON *      CLOUDY    14   9  79 SE7       30.53S WCI   4
DECORAH *      CLOUDY    14   1  57 SE7       30.41F WCI   4
DUBUQUE        CLOUDY    13   1  59 S9        30.46F WCI   1
6HR MIN TEMP:   9; 6HR MAX TEMP:  14;

MONTICELLO *   CLOUDY    14   5  67 SE9       30.48S WCI   2
OELWEIN *      CLOUDY    10   1  67 SE12      30.43F WCI  -4
WATERLOO       CLOUDY    14   5  67 SE8       30.43F WCI   3
6HR MIN TEMP:  11; 6HR MAX TEMP:  16;

$$

IAZ064-065-067-068-078-010100-
   EAST CENTRAL IOWA

CITY           SKY/WX    TMP DP  RH WIND       PRES   REMARKS
DAVENPORT      LGT SNOW  15   9  76 E9        30.50F WCI   3
6HR MIN TEMP:  15; 6HR MAX TEMP:  19; 6HR PCP: TRACE;

IOWA CITY      LGT SNOW  16  12  84 SE8       30.49F FOG     WCI   5
6HR MIN TEMP:  12; 6HR MAX TEMP:  18; 6HR PCP: TRACE;

MT. PLEASANT * LGT SNOW  17  14  87 E6        30.47F WCI   9
MUSCATINE *    LGT SNOW  19  14  79 SE6       30.50F WCI  11
QUAD CITIES    LGT SNOW  17   9  70 E9        30.50F WCI   6
6HR MIN TEMP:  15; 6HR MAX TEMP:  19; 6HR PCP: TRACE;

$$

IAZ062-063-075>077-085>089-095>099-010100-
   SOUTHEAST IOWA

CITY           SKY/WX    TMP DP  RH WIND       PRES   REMARKS
BURLINGTON     LGT SNOW  19  15  84 E5        30.47F FOG     WCI  12
6HR MIN TEMP:  18; 6HR MAX TEMP:  20; 6HR PCP: TRACE;

FAIRFIELD *    CLOUDY    18  12  79 SE8       30.45F WCI   7
FORT MADISON * LGT SNOW  18  16  93 SE3       30.48S
KEOKUK *       LGT SNOW  19  18  93 E6        30.47S WCI  11
OSKALOOSA *    LGT SNOW  17  14  88 SE10      30.43F WCI   5
CENTERVILLE *  FLURRIES  19  18  93 SE10      30.41F WCI   8
OTTUMWA        LGT SNOW  18  14  84 SE9       30.42F FOG     WCI   7
6HR MIN TEMP:  18; 6HR MAX TEMP:  22; 6HR PCP: TRACE;

WASHINGTON *   LGT SNOW  18  18 100 SE8       30.47S WCI   7
$$

ABBREVIATIONS USED IN REMARKS
   TC - TEMPERATURES IN CELSIUS
  WCI - WIND CHILL INDEX
   HX - HEAT INDEX
  VSB - VISIBILITY
$$



USA.gov is the U.S. government's official web portal to all federal, state and local government web resources and services.